Wind_Speed
40 39 39 39 39 39 40 40 40 40 41 42 42 42 42 43 43 43 43 44 44 44 45 45 46 46 46 47 48 48 47 46 45 44 42 42 42 41 41 40 39 39 38
41 40 40 40 40 40 39 39 40 40 41 42 42 43 43 44 44 45 46 46 46 46 46 47 48 49 49 50 50 50 50 49 47 46 45 44 44 44 43 43 42 40 40
42 41 41 41 41 40 40 40 41 41 41 41 42 42 43 44 45 45 46 47 48 49 49 49 50 51 52 52 52 52 53 52 51 49 48 47 47 46 46 45 44 43 42
42 42 41 41 41 40 41 41 41 41 41 42 43 43 43 44 45 46 47 48 49 50 50 51 51 52 54 55 55 54 54 55 54 52 51 50 50 50 49 48 46 45 44
42 41 41 41 41 41 41 40 41 41 41 42 42 42 42 43 44 45 46 48 49 50 51 52 53 54 54 56 56 56 56 57 56 54 53 53 52 52 53 50 49 47 45
42 41 41 41 42 41 40 40 40 40 39 39 39 39 39 40 41 42 43 44 46 48 50 51 53 54 55 56 56 57 57 57 58 57 55 54 53 53 53 53 51 50 48
43 42 42 42 41 41 40 39 39 39 38 38 38 38 38 39 39 40 40 41 43 45 47 50 52 53 54 56 57 58 58 58 58 57 57 56 53 53 54 54 53 51 50
43 43 43 42 41 40 39 39 38 38 38 38 38 37 37 38 38 38 39 40 40 42 44 46 48 50 52 53 56 56 58 59 59 58 57 57 55 53 54 54 54 53 52
44 43 43 41 40 39 39 38 37 37 37 36 36 35 34 34 34 34 35 35 36 37 39 42 44 45 48 50 53 55 57 59 60 60 59 58 57 56 55 55 55 55 54
44 43 42 41 40 39 38 37 36 36 35 34 33 32 31 30 30 29 29 29 30 31 33 36 39 42 45 47 49 51 53 56 58 59 59 59 58 57 56 55 55 54 53
44 43 42 41 40 39 38 36 36 35 33 32 31 29 27 26 25 24 23 23 24 25 27 30 34 37 40 42 44 46 49 52 55 56 58 58 58 57 56 55 54 54 52
44 43 41 40 39 39 37 35 34 34 31 30 29 26 23 22 20 18 18 17 18 19 22 25 29 32 35 38 41 43 45 48 52 53 54 55 55 55 54 53 53 54 53
44 43 41 40 39 38 36 34 33 32 30 28 26 23 21 19 17 15 14 13 14 16 17 20 24 28 31 34 38 40 41 43 46 49 51 52 52 53 53 51 51 52 51
44 42 40 40 39 38 36 33 32 30 28 27 24 22 20 18 15 13 11 10 11 13 15 17 21 23 27 31 34 35 37 39 42 44 47 48 50 51 51 52 51 50 50
43 42 40 39 38 37 35 32 30 28 27 26 24 21 19 16 13 11 9 7 8 9 12 15 17 20 23 26 29 32 33 36 39 42 43 45 46 47 48 49 50 50 50
42 42 39 38 37 36 34 32 29 27 25 25 23 21 18 15 12 10 7 6 6 7 8 11 14 17 20 23 25 28 30 33 36 39 41 42 43 44 45 47 48 49 49
41 41 39 37 37 36 33 31 28 26 24 23 22 21 18 14 12 9 7 6 4 4 6 9 12 15 18 21 23 25 27 30 33 35 37 39 41 42 43 44 45 46 47
41 40 39 37 36 35 33 30 27 25 24 22 22 20 18 16 13 10 8 6 3 2 4 6 9 13 16 19 21 23 25 28 30 32 34 37 37 39 41 42 42 44 45
39 39 38 36 35 34 32 29 27 25 23 22 21 19 18 16 15 12 9 6 2 0 2 5 8 10 13 17 19 21 23 26 29 30 32 34 35 36 38 40 41 42 42
39 38 38 36 33 32 31 29 26 24 23 22 20 19 18 16 15 13 10 7 4 2 1 3 6 9 11 14 17 20 22 24 27 30 31 32 34 35 36 38 39 40 41
37 37 37 35 32 30 29 28 26 24 22 21 20 20 19 17 16 13 11 8 6 3 1 2 4 7 10 13 15 18 20 23 25 28 29 30 31 33 35 36 37 39 40
36 36 35 33 31 29 28 27 25 24 22 20 19 19 19 18 16 14 12 10 8 6 3 1 2 4 7 10 13 16 18 20 23 26 28 29 30 31 33 35 36 37 39
34 34 33 32 30 28 27 26 24 23 21 20 19 18 18 17 16 15 13 12 10 8 6 4 3 3 5 8 11 14 16 18 20 22 25 26 28 30 32 34 35 35 37
32 32 31 30 28 27 26 24 23 22 21 20 19 18 17 16 16 15 13 11 10 9 8 7 6 5 6 8 10 12 14 16 18 20 21 24 27 28 29 31 31 33 35
31 30 29 28 27 25 24 22 21 21 20 20 19 18 17 16 15 14 14 13 12 11 10 9 8 7 8 9 10 11 12 13 15 17 19 21 23 25 27 28 29 30 32
30 29 28 26 25 23 22 21 19 19 19 19 19 19 18 17 16 16 16 15 14 13 12 11 10 10 10 10 10 11 12 13 14 16 17 19 21 24 25 26 27 28 30
Wind_Direction
316 314 311 308 305 302 299 295 292 290 287 285 282 279 276 273 269 266 262 259 256 253 251 247 244 241 239 237 234 232 230 229 228 227 227 227 226 226 226 226 225 224 223
317 315 313 310 308 305 302 299 295 292 290 288 285 281 277 273 269 265 263 259 256 254 251 248 245 241 239 239 236 234 232 230 229 228 227 227 227 225 225 225 225 225 224
318 316 314 312 310 307 304 302 298 296 293 290 287 284 280 276 272 268 264 261 258 255 251 248 244 241 239 238 237 236 233 231 230 229 228 227 226 224 225 226 226 225 225
319 317 315 313 311 309 306 304 301 298 295 292 289 286 282 277 274 270 266 262 258 255 251 247 244 242 240 238 236 236 234 231 230 229 228 227 228 226 225 225 226 226 226
321 319 317 316 314 311 309 307 304 301 298 296 292 288 285 280 276 271 268 264 260 255 251 248 245 243 240 238 236 235 234 232 231 229 229 228 229 228 226 226 226 225 225
324 322 320 318 317 314 312 310 308 305 302 299 296 292 288 284 279 273 269 265 260 256 251 247 245 243 240 238 236 235 233 233 231 230 229 229 228 228 227 227 227 226 226
327 325 323 321 319 317 315 313 311 308 305 302 299 294 289 285 281 277 271 267 261 255 250 247 244 242 240 238 236 234 233 232 230 229 229 228 227 228 228 227 226 226 226
329 327 326 324 322 319 318 316 313 311 308 305 302 297 292 288 283 279 274 267 261 256 250 246 243 240 238 236 234 233 231 230 229 228 227 227 226 226 227 226 226 225 225
330 329 328 326 324 322 320 319 317 315 313 311 306 301 297 292 287 281 275 268 261 255 249 244 240 238 236 233 232 231 230 229 228 227 226 225 225 225 226 224 224 224 224
333 332 331 329 327 325 324 323 321 320 317 315 312 307 302 297 291 284 277 269 261 254 246 240 236 235 233 232 230 229 228 228 227 227 227 226 226 226 225 224 224 223 223
335 334 333 332 331 330 328 327 326 324 322 320 318 313 308 303 297 287 278 271 259 249 244 238 233 232 231 230 228 227 226 226 226 226 225 225 225 225 226 225 224 222 222
338 337 336 335 334 333 332 330 329 329 327 326 324 320 315 310 304 293 282 271 257 249 241 236 232 231 229 227 225 224 224 224 224 224 223 223 223 222 222 222 221 220 220
340 340 339 339 338 337 335 334 334 334 333 332 330 328 324 319 312 302 289 275 262 251 241 232 228 228 224 222 220 220 221 221 221 221 220 221 221 220 219 218 216 215 216
343 342 342 341 341 341 339 339 338 339 339 338 337 336 332 327 320 311 299 282 266 254 242 232 227 225 221 218 217 217 217 216 216 217 218 218 219 219 218 218 217 215 214
345 345 344 344 345 345 344 343 343 344 344 344 344 343 340 336 330 323 312 296 273 256 242 231 224 219 217 215 214 214 214 214 213 214 214 215 216 216 216 216 217 215 213
346 347 347 347 348 348 348 347 347 348 348 350 352 351 348 347 344 338 325 304 280 256 236 223 217 214 212 209 208 211 210 209 210 210 211 211 211 211 212 214 216 215 213
347 349 349 350 351 351 351 351 351 351 353 355 357 358 358 355 353 349 338 324 302 257 230 217 211 208 206 204 204 206 207 207 207 207 207 209 210 209 209 211 214 215 213
348 350 350 351 353 354 355 354 354 355 357 359 0 2 4 2 359 355 349 338 326 269 222 210 207 203 201 202 203 204 206 205 204 204 205 206 207 208 207 208 209 211 212
349 351 352 353 355 356 357 358 358 360 0 1 4 7 8 9 10 10 7 8 11 359 192 193 195 195 196 199 202 204 205 205 204 204 204 205 205 206 206 206 206 207 208
349 351 352 354 356 358 360 1 2 4 4 4 6 9 11 11 13 17 19 24 34 52 128 181 193 196 196 197 199 201 202 203 203 204 205 205 205 205 206 205 205 205 206
349 350 352 355 357 358 360 2 4 6 7 7 9 12 16 19 22 26 28 31 35 37 78 188 200 200 199 199 199 199 198 199 200 202 204 204 205 206 206 204 203 204 205
349 350 353 355 357 359 0 3 5 8 10 11 14 17 21 23 25 28 34 37 37 38 44 102 186 197 197 198 199 198 197 200 202 202 202 203 204 204 204 202 201 202 205
349 350 353 355 357 359 2 4 7 10 12 14 16 19 21 21 23 28 33 35 38 44 50 67 110 150 176 188 191 193 195 196 196 198 200 201 200 200 202 201 200 202 204
348 350 352 354 356 359 2 5 8 11 13 14 16 18 20 22 23 26 30 35 38 46 56 63 75 102 134 156 171 178 183 188 193 195 194 194 195 197 199 200 201 201 201
346 348 350 352 356 360 3 5 8 11 14 15 19 22 24 24 28 33 37 41 47 53 58 63 71 92 117 132 145 155 161 165 169 175 181 184 187 190 192 193 194 196 197
343 346 348 351 354 358 2 5 8 12 16 20 24 26 29 34 40 43 46 51 56 58 60 68 82 93 105 117 128 138 146 151 156 162 167 172 176 180 183 186 187 188 190
Height
5752 5745 5739 5734 5728 5723 5718 5714 5709 5705 5702 5699 5696 5694 5693 5692 5691 5692 5693 5694 5697 5699 5702 5705 5709 5713 5717 5722 5726 5731 5736 5742 5749 5755 5760 5766 5771 5777 5782 5788 5793 5798 5803
5742 5735 5729 5723 5717 5712 5706 5701 5697 5693 5688 5685 5681 5679 5677 5676 5675 5676 5677 5678 5681 5684 5687 5690 5694 5698 5703 5708 5713 5718 5724 5730 5737 5743 5749 5755 5760 5766 5772 5778 5784 5789 5794
5733 5726 5719 5712 5706 5700 5695 5689 5684 5679 5675 5671 5667 5664 5662 5660 5659 5659 5660 5662 5664 5667 5670 5674 5678 5683 5688 5693 5698 5704 5710 5717 5724 5731 5738 5743 5749 5755 5761 5768 5774 5780 5786
5724 5716 5709 5702 5696 5689 5683 5677 5672 5666 5662 5657 5653 5649 5646 5644 5643 5642 5643 5644 5646 5649 5652 5657 5661 5666 5671 5677 5683 5689 5696 5703 5710 5717 5725 5731 5737 5743 5750 5757 5764 5770 5776
5715 5707 5700 5692 5685 5678 5672 5665 5659 5653 5648 5643 5638 5634 5630 5628 5626 5625 5625 5626 5628 5631 5634 5639 5643 5649 5654 5660 5667 5674 5680 5688 5695 5703 5711 5718 5724 5731 5739 5746 5753 5759 5765
5706 5698 5690 5683 5675 5668 5661 5654 5647 5641 5635 5629 5624 5620 5616 5613 5610 5609 5608 5608 5610 5613 5616 5620 5625 5631 5637 5643 5650 5657 5665 5672 5681 5689 5697 5705 5712 5718 5726 5733 5741 5748 5755
5697 5689 5681 5673 5665 5657 5650 5643 5636 5629 5623 5617 5611 5606 5602 5598 5595 5593 5592 5592 5593 5595 5598 5602 5607 5613 5619 5626 5633 5641 5649 5657 5666 5674 5682 5690 5698 5706 5713 5721 5728 5736 5744
5689 5681 5672 5664 5656 5648 5640 5632 5625 5618 5611 5605 5599 5593 5588 5584 5580 5578 5576 5576 5576 5578 5581 5585 5590 5596 5602 5609 5616 5624 5632 5642 5651 5660 5669 5677 5684 5691 5700 5707 5715 5723 5731
5682 5673 5664 5655 5647 5639 5630 5622 5615 5608 5600 5593 5587 5581 5575 5571 5567 5564 5561 5561 5561 5563 5565 5569 5574 5580 5587 5594 5601 5609 5617 5625 5634 5644 5653 5661 5669 5678 5686 5694 5702 5710 5719
5674 5665 5656 5647 5638 5630 5621 5613 5606 5598 5591 5583 5576 5570 5564 5559 5555 5551 5549 5548 5548 5550 5552 5556 5561 5567 5572 5579 5587 5595 5602 5610 5619 5629 5638 5647 5655 5664 5672 5681 5690 5699 5707
5667 5657 5648 5639 5630 5622 5613 5605 5597 5589 5582 5574 5567 5560 5554 5549 5545 5541 5539 5538 5538 5539 5542 5545 5549 5555 5560 5567 5574 5582 5589 5597 5605 5614 5624 5633 5642 5651 5660 5669 5678 5687 5695
5660 5650 5641 5632 5623 5614 5606 5597 5589 5582 5574 5566 5559 5553 5547 5541 5537 5534 5532 5531 5530 5532 5534 5537 5540 5545 5550 5556 5563 5570 5577 5584 5593 5601 5610 5620 5630 5638 5648 5657 5665 5674 5683
5654 5644 5635 5626 5616 5608 5599 5591 5583 5575 5568 5560 5554 5547 5541 5536 5532 5529 5527 5526 5525 5526 5527 5530 5533 5537 5542 5547 5554 5560 5567 5574 5582 5590 5599 5608 5618 5626 5635 5644 5653 5662 5671
5649 5639 5630 5621 5611 5602 5593 5585 5578 5570 5563 5556 5549 5543 5538 5533 5529 5525 5523 5522 5521 5521 5523 5525 5528 5531 5535 5541 5546 5552 5559 5566 5573 5581 5589 5598 5606 5615 5625 5633 5642 5651 5660
5644 5635 5625 5616 5607 5598 5589 5581 5574 5567 5560 5553 5546 5540 5535 5530 5526 5523 5521 5519 5519 5519 5519 5521 5523 5527 5531 5535 5540 5546 5552 5558 5566 5573 5581 5589 5598 5606 5615 5624 5632 5641 5651
5640 5631 5622 5613 5604 5595 5586 5578 5571 5564 5558 5551 5545 5539 5533 5529 5525 5522 5520 5518 5517 5517 5517 5518 5520 5523 5527 5531 5536 5541 5547 5553 5559 5567 5574 5582 5590 5599 5607 5615 5623 5632 5641
5637 5628 5619 5610 5601 5592 5584 5576 5569 5563 5556 5550 5544 5538 5533 5529 5525 5522 5519 5518 5516 5516 5516 5517 5519 5521 5524 5528 5533 5538 5543 5549 5555 5561 5569 5576 5584 5592 5599 5608 5616 5624 5633
5634 5626 5617 5608 5600 5591 5583 5575 5568 5562 5556 5550 5545 5539 5534 5529 5525 5522 5519 5518 5516 5516 5516 5517 5518 5520 5523 5526 5530 5535 5540 5545 5551 5557 5564 5571 5578 5585 5593 5601 5609 5617 5625
5632 5624 5615 5607 5598 5591 5583 5575 5568 5562 5556 5550 5545 5540 5535 5530 5526 5523 5520 5518 5517 5517 5517 5517 5518 5520 5522 5525 5528 5532 5537 5542 5547 5553 5560 5567 5573 5580 5587 5594 5602 5610 5618
5630 5622 5614 5606 5598 5591 5583 5576 5569 5563 5557 5551 5546 5541 5537 5532 5528 5525 5522 5520 5519 5518 5518 5518 5519 5520 5522 5524 5527 5530 5534 5539 5544 5550 5556 5562 5569 5575 5582 5589 5597 5605 5612
5629 5621 5613 5605 5598 5591 5584 5577 5571 5565 5559 5553 5548 5543 5539 5535 5531 5527 5525 5523 5521 5520 5519 5519 5519 5520 5521 5523 5526 5529 5533 5537 5541 5546 5552 5558 5564 5570 5577 5584 5591 5599 5606
5627 5620 5613 5605 5598 5591 5585 5578 5572 5567 5561 5556 5551 5546 5542 5538 5534 5530 5528 5525 5523 5522 5521 5520 5520 5520 5521 5523 5525 5528 5531 5535 5539 5544 5549 5554 5560 5566 5572 5579 5586 5593 5601
5626 5619 5612 5605 5599 5592 5586 5580 5574 5569 5564 5559 5554 5549 5545 5541 5537 5534 5531 5528 5526 5524 5523 5521 5521 5521 5521 5522 5524 5527 5530 5534 5538 5542 5546 5551 5557 5563 5569 5575 5582 5589 5596
5625 5618 5612 5606 5599 5593 5587 5582 5576 5571 5566 5561 5556 5552 5548 5544 5540 5537 5534 5531 5529 5527 5526 5525 5523 5523 5523 5524 5525 5527 5529 5532 5536 5540 5544 5549 5555 5560 5566 5572 5578 5585 5591
5624 5618 5612 5606 5600 5594 5588 5583 5578 5573 5569 5564 5559 5555 5551 5547 5544 5541 5538 5535 5533 5531 5529 5528 5527 5526 5526 5526 5527 5529 5531 5533 5536 5540 5544 5549 5553 5559 5564 5570 5576 5582 5589
5622 5616 5611 5606 5600 5595 5590 5585 5580 5576 5571 5567 5563 5558 5555 5551 5548 5545 5542 5539 5537 5535 5534 5532 5531 5530 5530 5530 5531 5533 5534 5537 5539 5542 5546 5550 5554 5559 5564 5570 5576 5582 5588